Location: Recife
(8.0585°S, 34.8848°W)
Time: 21:01:17
(UTC-03:00)

Explorer 11/Cluster Stage 4 - Pass Details

Date: 18 April 2026
Orbit: 463 x 1174 km, 28.8° (Epoch: 16 May)

Event Time Altitude Azimuth Distance (km) Brightness Sun altitude
Rises 03:53:46 0° 231° (SW) 2,548 - -22.3°
Reaches altitude 10° 03:55:55 10° 224° (SW) 1,719 - -21.8°
Exits shadow 03:58:38 36° 190° (S) 872 6.6 -21.1°
Maximum altitude 03:59:40 44° 151° (SSE) 779 6.7 -20.9°
Drops below altitude 10° 04:04:03 10° 78° (ENE) 2,013 9.9 -19.8°
Sets 04:06:44 0° 72° (ENE) 3,048 11.2 -19.1°
